Погода в Гдове

Россия / Псковская область     58°44′39″N   27°49′10″E
темп.,
°C
ветер,
м/с
пор.,
м/с
влажн.,
%
обл.,
%
осадки,
мм/ч
давл.,
гПа
погр.,
м
13 апреля, вт
вт1300:00+7ююв4979100 0.0 1018123
03:00+4ююз468967 0.0 101881
06:00+4ю348895 0.0 101845
09:00+4ююз3591100 0.1 101990
12:00+4зсз3595100 0.0 1020163
15:00+4ссз4693100 0.1 1021177
18:00+3с3692100 0.1 1021160
21:00+2с4893100 1.0 1021224
14 апреля, ср
ср1400:00+1с4898100 1.4 1021278
03:00+1ссв3798100 2.3 1021248
06:00+1с1198100 0.4 102049
09:00+1сз349588 0.4 1021179
12:00+2сз248147 0.0 1022339
15:00+4сз356984 0.0 1022459
18:00+4с476547 0.0 1022381
21:00+2ссв377893 0.0 1024117
15 апреля, чт
чт1500:00+1ссв3785100 0.0 1025135
03:00+1ссв3884100 0.0 1025138
06:00+1св498174 0.0 1026186
09:00+3ссв5967100 0.0 1027323
12:00+5ссв595588 0.0 1027475
15:00+7ссв510495 0.0 1026550
18:00+6ссв510505 0.0 1026523
21:00+3св510588 0.0 1027241
16 апреля, пт
пт1600:00+2св510695 0.0 1027227
03:00+1св5117597 0.0 1027217
06:00+1св6127982 0.0 1027260
09:00+4св6116546 0.0 1027290
12:00+7св5104821 0.0 1027417
15:00+8св594191 0.0 1027514
18:00+8св494979 0.0 1027507
21:00+5св5116320 0.0 1028205
17 апреля, сб
сб1700:00+4св510705 0.0 1029185
03:00+2св5107564 0.0 1029160
06:00+2св5107575 0.0 1029187
09:00+5всв596541 0.0 1030226
12:00+8всв595467 0.0 1030372
15:00+10всв585044 0.0 1030477
18:00+10всв48515 0.0 1029474
21:00+6всв36635 0.0 103086